Location: Broletto
(44.6000°N, 10.5833°E)
Time: 00:36:19
(UTC+00:00)

CZ-2C R/B - Pass Details

Date: 18 April 2021
Orbit: 784 x 871 km, 98.2° (Epoch: 07 May)

Event Time Altitude Azimuth Distance (km) Brightness Sun altitude
Rises 18:48:03 0° 8° (N) 3,286 6.0 -7.8°
Reaches altitude 10° 18:50:25 10° 4° (N) 2,356 5.3 -8.2°
Maximum altitude 18:55:27 53° 289° (WNW) 969 3.5 -9.0°
Drops below altitude 10° 19:00:31 10° 214° (SSW) 2,372 5.1 -9.8°
Sets 19:02:54 0° 209° (SSW) 3,310 5.8 -10.2°
